#timestamp,LO_Frequency,Hit,StdDev 
1589598015.4,286046993.9,Y
1589598035.3,286046992.3,P
1589598055.1,286046990.7,N
1589598075.8,286046992.0,N
1589598095.7,286046992.7,N
1589598115.5,286046994.8,N
1589598135.4,286046990.1,Y
1589598155.2,286046996.8,P
1589598175.0,286046994.9,P
1589598175.9,286046994.9,P
1589598195.8,286046997.4,N
1589598215.6,286046997.4,N
1589598235.5,286046995.2,Y
1589598255.3,286046998.6,P
1589598275.1,286047001.0,N
1589598295.9,286047000.6,N
1589598315.7,286047000.4,N
1589598335.6,286046998.5,N
1589598355.4,286046998.8,N
1589598375.2,286046998.9,N
1589598395.1,286046999.0,N
1589598396.0,286046999.0,N
1589598415.8,286046997.0,N
1589598435.6,286046999.1,N
1589598455.5,286046999.3,N
1589598475.3,286046999.6,N
1589598495.2,286046999.6,N
1589598515.9,286046998.7,N
1589598535.7,286046998.8,N
1589598555.6,286046998.7,N
1589598575.4,286046998.5,N
1589598595.2,286047002.6,N
1589598615.1,286047000.1,N
1589598616.0,286047000.1,N
1589598635.8,286047001.9,N
1589598655.7,286047002.4,N
1589598675.5,286047001.7,N
1589598695.3,286047002.7,N
1589598715.2,286047000.3,N
1589598735.0,286047002.5,N
1589598735.9,286047002.5,N
1589598755.7,286047001.6,N
1589598775.6,286047001.5,N
1589598795.4,286047002.1,N
1589598815.3,286047002.5,N
1589598835.1,286047002.0,N
1589598836.0,286047002.0,N
1589598855.8,286047000.2,N
1589598875.7,286047000.5,N
1589598895.5,286047000.9,N
1589598915.3,286047001.2,N
1589598935.2,286047000.8,N
1589598955.0,286046998.6,N
1589598955.9,286046998.6,N
1589598975.8,286046999.4,N
1589598995.6,286047000.8,N
1589599015.4,286046998.5,N
1589599035.3,286046998.9,N
1589599055.1,286046999.2,N
1589599075.8,286046999.6,N
1589599095.7,286046997.7,N
1589599115.5,286046999.4,N
1589599135.4,286046999.3,N
1589599155.2,286046997.0,N
1589599175.0,286046997.0,N
1589599175.9,286046997.0,N
1589599195.8,286046998.0,N
1589599215.6,286046999.4,N
1589599235.5,286046997.4,N
1589599255.3,286046997.7,N
1589599275.1,286046996.7,N
1589599295.9,286046996.8,N
1589599315.7,286046998.7,N
1589599335.5,286047001.2,N
1589599355.4,286047002.3,N
1589599375.2,286047000.9,N
1589599395.1,286046998.4,N
1589599396.0,286046998.4,N
1589599415.8,286046998.1,N
1589599435.6,286046999.3,N
1589599455.5,286046998.6,N
1589599475.3,286046999.2,N
1589599495.1,286046999.1,N
1589599515.9,286046998.3,N
1589599535.7,286047001.1,N
1589599555.6,286046998.3,N
1589599575.4,286046999.5,N
1589599595.2,286046998.8,N
1589599615.1,286046998.2,N
1589599616.0,286046998.2,N
1589599635.8,286046999.4,N
1589599655.6,286046996.9,N
1589599675.5,286046997.0,N
1589599695.3,286047001.2,N
1589599715.2,286047001.2,N
1589599735.9,286047000.8,N
1589599755.7,286047000.7,N
1589599775.6,286046998.7,N
1589599795.4,286046998.8,N
1589599815.2,286046999.4,N
1589599835.1,286046997.0,N
1589599836.0,286046997.0,N
1589599855.8,286046997.3,N
1589599875.7,286046997.4,N
1589599895.5,286046999.5,N
1589599915.3,286046998.3,N
1589599935.2,286046999.6,N
1589599955.0,286046999.1,N
1589599955.9,286046999.1,N
1589599975.8,286046996.6,N
1589599995.6,286047000.8,N
1589600015.4,286046998.6,N
1589600035.3,286046998.1,N
1589600055.1,286046998.3,N
1589600075.8,286046999.4,N
1589600095.7,286046999.3,N
1589600115.5,286046996.9,N
1589600135.4,286046996.8,N
1589600155.2,286046996.5,N
1589600175.0,286046996.7,N
1589600175.9,286046996.7,N
1589600195.8,286046999.5,N
1589600215.6,286046998.9,N
1589600235.4,286046999.1,N
1589600255.3,286047000.3,N
1589600275.1,286047000.3,N
1589600295.9,286046998.5,N
1589600315.7,286047002.7,N
1589600335.5,286047002.2,N
1589600355.4,286047002.7,N
1589600375.2,286047000.3,N
1589600395.0,286046998.5,N
1589600395.9,286046998.5,N
1589600415.8,286046998.2,N
1589600435.6,286047000.5,N
1589600455.5,286047000.3,N
1589600475.3,286047001.7,N
1589600495.1,286047003.1,N
1589600515.9,286047005.5,N
1589600535.7,286047004.6,N
1589600555.5,286047006.3,N
1589600575.4,286047008.6,Y
1589600595.2,286047006.1,P
1589600615.1,286047008.9,N
1589600616.0,286047008.9,N
1589600635.8,286047008.2,N
1589600655.6,286047007.8,N
1589600675.5,286047010.2,Y
1589600695.3,286047003.7,P
1589600715.2,286047004.0,N
1589600735.9,286047004.4,P
1589600755.7,286047005.2,Y
1589600775.6,286047002.1,P
1589600795.4,286047002.1,N
1589600815.2,286047005.9,P
1589600835.1,286047004.9,N
1589600836.0,286047004.9,Y
1589600855.8,286047003.9,P
1589600875.7,286047000.4,P
1589600895.5,286046999.7,N
1589600915.3,286046999.8,N
1589600935.2,286046999.7,N
1589600955.0,286047002.3,N
1589600955.9,286047002.3,N
1589600975.8,286047004.4,N
1589600995.6,286047002.6,N
1589601015.4,286047002.4,N
1589601035.3,286047002.7,N
1589601055.1,286047002.3,N
1589601075.9,286047000.1,N
1589601095.7,286046999.8,N
1589601115.5,286047002.7,N
1589601135.4,286047002.0,N
1589601155.2,286047004.3,N
1589601175.0,286047000.5,N
1589601176.0,286047000.5,N
1589601195.8,286047001.1,N
1589601215.6,286046998.7,N
1589601235.5,286047000.5,N
1589601255.3,286047002.5,N
1589601275.1,286047000.4,N
1589601295.9,286046999.9,N
1589601315.7,286047000.1,N
1589601335.6,286047002.5,N
1589601355.4,286046999.7,N
1589601375.2,286047004.0,N
1589601395.1,286047005.6,Y
1589601396.0,286047005.6,P
1589601415.8,286047001.3,N
1589601435.7,286047003.9,N
1589601455.5,286047004.2,N
1589601475.3,286047002.0,N
1589601495.2,286047001.4,N
1589601515.0,286047001.8,N
1589601515.9,286047001.8,N
1589601535.7,286047001.8,N
1589601555.6,286047002.6,N
1589601575.4,286047002.1,N
1589601595.3,286047002.6,N
